TimeEST,TemperatureF,Dew PointF,Humidity,Sea Level PressureIn,VisibilityMPH,Wind Direction,Wind SpeedMPH,Gust SpeedMPH,PrecipitationIn,Events,Conditions,WindDirDegrees,DateUTC
12:56 AM,45.0,44.1,97,30.05,2.0,North,3.5,-,N/A,,Mostly Cloudy,350,2012-12-09 05:56:00
1:56 AM,42.8,42.8,100,30.05,1.0,Calm,Calm,-,N/A,,Overcast,0,2012-12-09 06:56:00
2:56 AM,42.1,41.0,96,30.07,0.5,Calm,Calm,-,N/A,Fog,Fog,0,2012-12-09 07:56:00
3:56 AM,41.0,39.9,96,30.08,0.5,Calm,Calm,-,N/A,Fog,Fog,0,2012-12-09 08:56:00
4:30 AM,42.8,42.8,100,30.09,1.0,NNW,8.1,-,N/A,,Mostly Cloudy,330,2012-12-09 09:30:00
4:56 AM,44.1,43.0,96,30.12,2.5,NW,8.1,-,N/A,,Mostly Cloudy,320,2012-12-09 09:56:00
5:56 AM,44.1,43.0,96,30.15,4.0,NW,5.8,-,N/A,,Overcast,310,2012-12-09 10:56:00
6:56 AM,46.0,42.1,86,30.17,8.0,NNW,3.5,-,N/A,,Overcast,330,2012-12-09 11:56:00
7:56 AM,46.0,42.1,86,30.20,4.0,NNW,3.5,-,0.03,Rain,Rain,330,2012-12-09 12:56:00
8:56 AM,45.0,43.0,93,30.21,4.0,Calm,Calm,-,0.07,Rain,Rain,0,2012-12-09 13:56:00
9:38 AM,44.6,41.0,87,30.22,5.0,NE,4.6,-,0.02,Rain,Light Rain,40,2012-12-09 14:38:00
9:56 AM,44.1,41.0,89,30.22,5.0,ENE,3.5,-,0.03,Rain,Light Rain,60,2012-12-09 14:56:00
10:56 AM,45.0,41.0,86,30.21,7.0,Variable,5.8,-,0.01,Rain,Light Rain,0,2012-12-09 15:56:00
11:23 AM,44.6,41.0,87,30.19,7.0,SE,11.5,21.9,N/A,Rain,Light Rain,140,2012-12-09 16:23:00
11:56 AM,44.1,39.9,85,30.19,7.0,East,5.8,-,0.00,Rain,Light Rain,80,2012-12-09 16:56:00
12:56 PM,43.0,39.9,89,30.17,6.0,NNE,4.6,-,0.00,,Overcast,20,2012-12-09 17:56:00
1:56 PM,43.0,39.0,86,30.16,6.0,NE,4.6,-,0.00,,Overcast,40,2012-12-09 18:56:00
2:24 PM,42.8,39.2,87,30.15,6.0,NE,3.5,-,N/A,,Overcast,50,2012-12-09 19:24:00
2:56 PM,42.1,39.0,89,30.17,6.0,ENE,3.5,-,0.00,Rain,Light Rain,70,2012-12-09 19:56:00
3:36 PM,42.8,39.2,87,30.15,1.8,East,3.5,-,0.01,Rain,Light Rain,80,2012-12-09 20:36:00
3:39 PM,42.8,39.2,87,30.15,2.0,ENE,3.5,-,0.01,Rain,Light Rain,70,2012-12-09 20:39:00
3:56 PM,41.0,39.9,96,30.16,2.0,Variable,4.6,-,0.01,,Overcast,0,2012-12-09 20:56:00
4:56 PM,41.0,39.9,96,30.14,2.0,East,4.6,-,0.01,,Overcast,80,2012-12-09 21:56:00
5:56 PM,41.0,39.9,96,30.13,2.0,ENE,4.6,-,N/A,,Overcast,60,2012-12-09 22:56:00
6:19 PM,41.0,39.2,93,30.11,2.5,ENE,4.6,-,0.01,Rain,Light Rain,70,2012-12-09 23:19:00
6:45 PM,42.8,41.0,93,30.10,4.0,East,9.2,-,0.01,Rain,Light Rain,100,2012-12-09 23:45:00
6:56 PM,42.1,39.9,92,30.11,3.0,ESE,13.8,-,0.02,Rain,Light Rain,110,2012-12-09 23:56:00
7:00 PM,42.8,39.2,87,30.10,4.0,ESE,12.7,-,0.00,Rain,Light Rain,110,2012-12-10 00:00:00
7:56 PM,41.0,39.9,96,30.12,3.0,East,5.8,-,0.12,Rain,Rain,100,2012-12-10 00:56:00
8:56 PM,41.0,39.9,96,30.09,4.0,ESE,6.9,-,0.07,Rain,Light Rain,120,2012-12-10 01:56:00
9:08 PM,41.0,39.2,93,30.06,5.0,East,8.1,-,0.00,,Overcast,90,2012-12-10 02:08:00
9:56 PM,41.0,39.0,93,30.05,6.0,ESE,9.2,-,0.00,,Overcast,110,2012-12-10 02:56:00
10:28 PM,41.0,39.2,93,30.03,4.0,ESE,5.8,-,N/A,,Overcast,110,2012-12-10 03:28:00
10:56 PM,41.0,39.9,96,30.03,2.0,East,5.8,-,0.00,,Light Drizzle,90,2012-12-10 03:56:00
11:27 PM,41.0,39.2,93,29.99,2.5,ESE,3.5,-,0.00,,Light Drizzle,110,2012-12-10 04:27:00
11:56 PM,41.0,39.9,96,29.99,1.5,East,4.6,-,0.00,,Light Drizzle,90,2012-12-10 04:56:00